[[{"header":{"parameterUnit":"m.s-1","parameterCategory":1,"la1":30.2991,"la2":30.254,"lo1":-89.0895,"lo2":-89.0444,"dy":0.0017,"dx":0.0017,"nx":28,"ny":28,"refTime":"2025-04-28T03:00:00:Z","depth":0,"parameterNumber":2,"parameterNumberName":"U-component_of_WINDS"},"data":[0,0,0,0,0,0,0,0,0,0,0,0,0,0,0,0,0,0,0,0,0,0,0,0,0,0,0,0,0,0,0,0,0,0,0,0,0,0,0,0,0,0,0,0,0,0,0,0,0,0,0,0,0,0,0,0,0,0,-2.3099,-2.3101,0,-2.3217,-2.3219,-2.322,-2.324,-2.3239,-2.3238,-2.3237,-2.3359,-2.3363,-2.3367,0,0,0,0,0,0,0,0,0,0,0,0,0,-2.2892,-2.2896,-2.3099,-2.3101,-2.3102,-2.3217,-2.3219,-2.3221,-2.324,-2.3239,-2.3238,-2.3237,-2.3358,-2.3363,-2.3368,0,0,0,0,0,0,0,0,0,0,0,0,0,-2.2993,-2.2897,-2.3099,-2.3126,-2.313,-2.3217,-2.3219,-2.3221,-2.3241,-2.3239,-2.3238,-2.3236,-2.3356,-2.3362,-2.3368,-2.3437,0,0,-2.3387,-2.339,0,0,0,0,0,0,0,0,-2.2987,-2.3001,-2.312,-2.3124,-2.3128,-2.3213,-2.3191,-2.3294,-2.3241,-2.3198,-2.3237,-2.3235,-2.3312,-2.3321,-2.3347,-2.3443,-2.3448,-2.3388,-2.3392,-2.3395,-2.3396,0,0,0,0,0,0,0,-2.298,-2.2996,-2.3146,-2.3122,-2.3127,-2.3133,-2.3145,-2.321,-2.3262,-2.3202,-2.3204,-2.3217,-2.3313,-2.3341,-2.335,-2.345,-2.3388,-2.3393,-2.3397,-2.34,-2.3609,-2.3611,0,0,0,0,0,0,-2.2968,-2.299,-2.3142,-2.315,-2.3053,-2.3137,-2.3152,-2.3187,-2.3261,-2.3271,-2.3219,-2.3218,-2.3331,-2.3343,-2.3354,-2.344,-2.3394,-2.34,-2.3404,-2.3607,-2.361,-2.3612,0,0,0,0,0,0,-2.2964,-2.2982,-2.3138,-2.307,-2.3091,-2.3143,-2.3182,-2.319,-2.3218,-2.3274,-2.3283,-2.3237,-2.333,-2.3345,-2.3417,-2.3444,-2.3403,-2.3409,-2.3605,-2.3608,-2.3611,-2.3611,0,0,0,0,0,0,-2.2958,-2.298,-2.3006,-2.3071,-2.3094,-2.3197,-2.3184,-2.3194,-2.3228,-2.3228,-2.3294,-2.3303,-2.333,-2.3407,-2.3423,-2.3452,-2.3414,-2.3603,-2.3607,-2.361,-2.3609,-2.3614,-2.3618,0,0,0,0,0,-2.295,-2.3002,-2.3008,-2.3026,-2.3128,-2.3199,-2.3212,-2.3242,-2.323,-2.3257,-2.3294,-2.3301,-2.3439,-2.3414,-2.3432,-2.3464,-2.3601,-2.3606,-2.3609,-2.3607,-2.3613,-2.3617,0,0,0,0,0,0,-2.294,-2.3011,-2.3018,-2.3092,-2.3139,-2.3202,-2.3237,-2.3247,-2.3299,-2.3297,-2.3332,-2.3347,-2.3416,-2.3447,-2.3418,-2.3535,-2.3519,-2.3527,-2.3511,-2.3517,-2.3521,-2.3512,-2.3419,0,0,0,0,0,-2.2946,-2.2997,-2.3057,-2.3117,-2.314,-2.3184,-2.3216,-2.3235,-2.3286,-2.3306,-2.3348,-2.3397,-2.3451,-2.3486,-2.3539,-2.3614,-2.3629,-2.3645,-2.3649,-2.3652,-2.3658,-2.37,-2.3708,-2.3625,-2.3625,-2.3625,0,0,-2.296,-2.3005,-2.3035,-2.3116,-2.3154,-2.3207,-2.3201,-2.3257,-2.3296,-2.3315,-2.3384,-2.3416,-2.3474,-2.3547,-2.3581,-2.3575,-2.3685,-2.3658,-2.366,-2.3664,-2.3705,-2.3713,-2.372,-2.3628,-2.3627,-2.3627,0,0,-2.3011,-2.305,-2.3104,-2.3143,-2.3202,-2.3231,-2.3244,-2.3306,-2.3328,-2.3398,-2.3413,-2.3461,-2.3554,-2.3594,-2.3627,-2.3694,-2.3702,-2.3711,-2.3733,-2.3773,-2.3779,-2.3785,-2.3809,-2.3817,-2.3717,-2.3717,-2.3717,0,-2.302,-2.3099,-2.313,-2.3186,-2.3221,-2.324,-2.3295,-2.3331,-2.3405,-2.3429,-2.3421,-2.3538,-2.3578,-2.3661,-2.3677,-2.3703,-2.3719,-2.3703,-2.3776,-2.3782,-2.3788,-2.3811,-2.382,-2.3717,-2.3717,-2.3717,-2.3717,0,-2.3107,-2.3162,-2.3199,-2.3269,-2.3308,-2.3363,-2.3403,-2.3439,-2.3455,-2.3485,-2.3557,-2.3606,-2.3669,-2.369,-2.3707,-2.3776,-2.377,-2.3769,-2.3754,-2.3796,-2.3818,-2.3827,-2.3718,-2.3718,-2.3718,-2.3717,0,0,-2.3154,-2.3241,-2.3253,-2.3285,-2.3352,-2.3395,-2.3452,-2.3513,-2.3543,-2.3594,-2.3642,-2.3721,-2.372,-2.3757,-2.3778,-2.3814,-2.3863,-2.3808,-2.381,-2.3816,-2.3942,-2.3941,-2.3951,-2.387,-2.3872,-2.3873,-2.3937,0,-2.3212,-2.3311,-2.3342,-2.3425,-2.3476,-2.3496,-2.3545,-2.3591,-2.3622,-2.367,-2.3704,-2.3758,-2.3754,-2.3776,-2.3813,-2.3849,-2.3889,-2.3845,-2.3914,-2.3916,-2.3898,-2.3962,-2.3962,-2.4019,-2.3945,-2.3947,-2.3948,0,-2.3293,-2.3344,-2.3433,-2.3493,-2.3516,-2.3559,-2.3618,-2.3664,-2.3717,-2.3737,-2.3778,-2.3797,-2.3857,-2.3839,-2.3922,-2.3892,-2.3922,-2.3945,-2.3948,-2.3954,-2.3934,-2.3969,-2.4039,-2.4047,-2.3962,-2.3961,-2.396,0,-2.3317,-2.3408,-2.3473,-2.35,-2.3572,-2.3602,-2.3634,-2.3686,-2.3721,-2.3773,-2.3796,-2.3855,-2.3887,-2.3932,-2.3966,-2.395,-2.4046,-2.4031,-2.4063,-2.4062,-2.4081,-2.4079,-2.4155,-2.4103,-2.4103,-2.4102,-2.4102,0,-2.3378,-2.3431,-2.3484,-2.3524,-2.3585,-2.3619,-2.3678,-2.3711,-2.3757,-2.3804,-2.3825,-2.3869,-2.3912,-2.3961,-2.3988,-2.4052,-2.4067,-2.4084,-2.4091,-2.4082,-2.4079,-2.4101,-2.4098,-2.4105,-2.4104,-2.4104,-2.4103,0,-2.3414,-2.3452,-2.3524,-2.3587,-2.3604,-2.3645,-2.3699,-2.3739,-2.377,-2.3829,-2.3845,-2.3894,-2.3954,-2.3992,-2.4068,-2.4087,-2.4156,-2.4162,-2.4138,-2.4141,-2.417,-2.4166,-2.4261,-2.4275,-2.4214,-2.4215,-2.4215,0,-2.345,-2.3491,-2.3558,-2.3591,-2.3622,-2.3675,-2.3711,-2.3747,-2.3784,-2.3848,-2.388,-2.3941,-2.3991,-2.4085,-2.4128,-2.4186,-2.4193,-2.4222,-2.4202,-2.4192,-2.4192,-2.4189,-2.4193,-2.4225,-2.4226,-2.4226,-2.4226,0,-2.3509,-2.3526,-2.3577,-2.3635,-2.3677,-2.3724,-2.3772,-2.3797,-2.3842,-2.3883,-2.3943,-2.3982,-2.4059,-2.4119,-2.4182,-2.4215,-2.4228,-2.4233,-2.4243,-2.4234,-2.4217,-2.4226,-2.4146,-2.423,-2.423,-2.4229,-2.4229,-2.4229,-2.3546,-2.3583,-2.3636,-2.3692,-2.3732,-2.3776,-2.3816,-2.3852,-2.3903,-2.3969,-2.3988,-2.4051,-2.4104,-2.4189,-2.4223,-2.4273,-2.427,-2.4285,-2.4289,-2.4292,-2.4291,-2.421,-2.4285,-2.4285,-2.4285,-2.4285,-2.4285,0,-2.3606,-2.3641,-2.3692,-2.3757,-2.3802,-2.3811,-2.3864,-2.39,-2.3955,-2.4003,-2.4052,-2.4122,-2.4181,-2.4228,-2.4289,-2.432,-2.4327,-2.4334,-2.4332,-2.4339,-2.4291,-2.4276,-2.4327,-2.4327,-2.4327,-2.4327,-2.4327,-2.4327,-2.3642,-2.3705,-2.3729,-2.3813,-2.3848,-2.3909,-2.3939,-2.3979,-2.4018,-2.4095,-2.4143,-2.4174,-2.4222,-2.4286,-2.4341,-2.4353,-2.4374,-2.4379,-2.4393,-2.4347,-2.4343,-2.4338,-2.4324,-2.4384,-2.4384,-2.4437,-2.4437,-2.4438]},{"header":{"parameterUnit":"m.s-1","parameterCategory":1,"la1":30.2991,"la2":30.254,"lo1":-89.0895,"lo2":-89.0444,"dy":0.0017,"dx":0.0017,"nx":28,"ny":28,"refTime":"2025-04-28T03:00:00:Z","depth":0,"parameterNumber":3,"parameterNumberName":"V-component_of_WINDS"},"data":[0,0,0,0,0,0,0,0,0,0,0,0,0,0,0,0,0,0,0,0,0,0,0,0,0,0,0,0,0,0,0,0,0,0,0,0,0,0,0,0,0,0,0,0,0,0,0,0,0,0,0,0,0,0,0,0,0,0,2.8991,2.8991,0,2.8976,2.8976,2.8976,2.8913,2.8912,2.891,2.8909,2.8894,2.8895,2.8896,0,0,0,0,0,0,0,0,0,0,0,0,0,2.8968,2.8969,2.8991,2.8991,2.8991,2.8976,2.8976,2.8976,2.8913,2.8912,2.891,2.8908,2.8894,2.8895,2.8896,0,0,0,0,0,0,0,0,0,0,0,0,0,2.8968,2.8969,2.8991,2.8958,2.8955,2.8976,2.8976,2.8975,2.8914,2.8912,2.8909,2.8907,2.8893,2.8895,2.8896,2.8948,0,0,2.89,2.8901,0,0,0,0,0,0,0,0,2.8968,2.8969,2.8963,2.896,2.8957,2.8944,2.8962,2.8966,2.8914,2.8929,2.8909,2.8906,2.8913,2.8912,2.8914,2.8947,2.8947,2.8901,2.8901,2.8902,2.8902,0,0,0,0,0,0,0,2.8968,2.8969,2.8985,2.8963,2.8959,2.8944,2.8942,2.8963,2.8933,2.8928,2.8923,2.8922,2.891,2.8913,2.8913,2.8947,2.8901,2.8902,2.8903,2.8903,2.9022,2.9025,0,0,0,0,0,0,2.8973,2.897,2.8986,2.8985,2.8957,2.8947,2.8944,2.8951,2.8933,2.8928,2.8924,2.892,2.8911,2.8912,2.8913,2.8972,2.8902,2.8903,2.8904,2.902,2.9023,2.9025,0,0,0,0,0,0,2.8973,2.8975,2.8986,2.8976,2.8976,2.8949,2.8957,2.8951,2.8954,2.893,2.8925,2.8932,2.891,2.8911,2.894,2.8971,2.8904,2.8905,2.9017,2.9021,2.9024,2.9092,0,0,0,0,0,0,2.8972,2.8975,2.8994,2.8977,2.8977,2.9014,2.8959,2.8953,2.8956,2.895,2.8936,2.8932,2.8908,2.8938,2.8941,2.8972,2.8906,2.9014,2.9019,2.9023,2.9087,2.9098,2.9107,0,0,0,0,0,2.8972,2.9014,2.8996,2.8998,2.9001,2.9016,2.9016,2.8988,2.8959,2.8978,2.8963,2.8932,2.8967,2.8942,2.8945,2.8976,2.9012,2.9018,2.9023,2.9083,2.9096,2.9107,0,0,0,0,0,0,2.9036,2.9011,2.899,2.9029,2.9025,2.9005,2.9028,2.9002,2.9006,2.9,2.8966,2.8963,2.8997,2.899,2.8961,2.9026,2.8985,2.8991,2.9029,2.9041,2.9051,2.9052,2.8908,0,0,0,0,0,2.9055,2.9069,2.9047,2.9083,2.9082,2.9056,2.9061,2.904,2.9034,2.9033,2.9019,2.9016,2.9026,2.9033,2.9041,2.9086,2.9082,2.9109,2.9119,2.9127,2.9133,2.9156,2.9168,2.9042,2.9042,2.9042,0,0,2.9094,2.9082,2.9093,2.9095,2.909,2.9105,2.9055,2.9073,2.9084,2.9035,2.9062,2.9053,2.9046,2.9084,2.9099,2.9078,2.9167,2.9134,2.9141,2.9142,2.9163,2.9175,2.9185,2.9046,2.9045,2.9045,0,0,2.9172,2.9165,2.9194,2.9189,2.9182,2.9164,2.9171,2.9156,2.9147,2.9174,2.9137,2.9151,2.9169,2.9166,2.9166,2.9245,2.9216,2.9249,2.9299,2.9323,2.9333,2.9341,2.9369,2.938,2.9254,2.9254,2.9255,0,2.9221,2.9243,2.9212,2.9233,2.9236,2.9192,2.9221,2.9219,2.9214,2.9217,2.9193,2.9215,2.9208,2.9244,2.9263,2.9266,2.9273,2.925,2.9334,2.9342,2.9349,2.9376,2.9386,2.9258,2.9258,2.9258,2.9257,0,2.9304,2.932,2.9344,2.9341,2.9346,2.9371,2.9345,2.9354,2.9332,2.9318,2.9345,2.9335,2.934,2.9347,2.9327,2.9381,2.9368,2.934,2.9297,2.9366,2.939,2.94,2.9264,2.9263,2.9261,2.926,0,0,2.9422,2.9401,2.9411,2.9409,2.9397,2.9409,2.9433,2.9438,2.9446,2.9445,2.9464,2.9481,2.9455,2.9456,2.9434,2.9455,2.9518,2.9424,2.9423,2.9442,2.9577,2.9598,2.961,2.9499,2.9501,2.9502,2.9577,0,2.9496,2.9535,2.9508,2.9552,2.9566,2.9525,2.9546,2.9541,2.9528,2.9539,2.9525,2.9537,2.9502,2.9502,2.9521,2.9506,2.9544,2.9501,2.9517,2.9518,2.9519,2.9623,2.9645,2.9716,2.9587,2.9588,2.9589,0,2.9588,2.9591,2.9635,2.9621,2.9626,2.9645,2.9648,2.9659,2.9653,2.9642,2.9644,2.9618,2.964,2.9599,2.963,2.9601,2.9606,2.9601,2.9603,2.9603,2.9557,2.9625,2.9738,2.9749,2.9604,2.9603,2.9602,0,2.967,2.9684,2.9713,2.9712,2.9697,2.9711,2.9706,2.9698,2.9703,2.9705,2.9708,2.9714,2.9717,2.9722,2.9698,2.967,2.9732,2.9689,2.9724,2.9724,2.9738,2.9737,2.9853,2.9742,2.9742,2.9742,2.9742,0,2.9755,2.9784,2.9749,2.9767,2.9798,2.9768,2.98,2.979,2.9783,2.9799,2.9764,2.9779,2.9747,2.9759,2.9741,2.9769,2.9771,2.9763,2.9757,2.9766,2.9767,2.9768,2.9763,2.9745,2.9744,2.9744,2.9743,0,2.9851,2.9829,2.9857,2.984,2.9837,2.9861,2.9846,2.9862,2.9847,2.9867,2.987,2.9847,2.9859,2.9836,2.9846,2.9833,2.9873,2.986,2.9875,2.9871,2.9907,2.9904,3.0027,3.0042,2.9922,2.9924,2.9925,0,2.9907,2.9928,2.9914,2.9921,2.9918,2.993,2.9935,2.9906,2.9913,2.9909,2.9925,2.9935,2.9941,2.9963,2.9947,2.9954,2.9941,2.9984,2.9942,2.9949,2.9941,2.994,2.9942,2.9992,2.9994,2.9995,2.9996,0,3.0009,2.9997,3.0005,3.001,3.0016,3.0019,3.0018,3.0027,2.9996,3.0006,3.0018,3.0022,3.0032,3.0042,3.0046,3.004,3.0013,3.0009,3.0018,3.0026,3.0034,3.003,2.9898,3.0006,3.0005,3.0005,3.0004,3.0004,3.0086,3.0103,3.0096,3.0106,3.0103,3.0104,3.0118,3.0105,3.0114,3.012,3.0103,3.0119,3.0113,3.0115,3.0113,3.0125,3.0106,3.0119,3.0122,3.0125,3.0131,3.0032,3.0126,3.0126,3.0125,3.0125,3.0125,0,3.0186,3.0179,3.0189,3.019,3.0198,3.0172,3.0171,3.018,3.0194,3.0191,3.0198,3.0212,3.0222,3.0207,3.0215,3.0228,3.0216,3.0231,3.0229,3.0228,3.0147,3.0139,3.024,3.024,3.024,3.024,3.024,3.024,3.0239,3.0267,3.0254,3.028,3.0273,3.0288,3.029,3.0291,3.0288,3.0306,3.0313,3.0304,3.0296,3.0303,3.0311,3.0306,3.031,3.033,3.0321,3.0245,3.0234,3.0223,3.0215,3.0331,3.0331,3.0401,3.0401,3.0402]}]]